CW9315 Weather Reports


Display with metric or nautical units.
time (UTC)temp
F
wind
direction
speed
MPH
gust
MPH
rain 1hr
in
rain 24hr
in
rain mn
in
humidity
%
barometer
mb
20210805130016 64 236 0.0 0.0 0.00 0.00 0.00 58 1008.3
20210805124515 64 12 0.0 0.0 0.00 0.00 0.00 58 1008.1
20210805123011 65 12 0.0 0.0 0.00 0.00 0.00 56 1008.1
20210805121518 65 12 0.0 0.0 0.00 0.00 0.00 54 1008.0
20210805120013 66 12 0.0 0.0 0.00 0.00 0.00 52 1008.2
20210805114543 67 12 0.0 0.0 0.00 0.00 0.00 50 1008.4
20210805113010 67 12 0.0 0.0 0.00 0.00 0.00 50 1008.4
20210805111508 67 12 0.0 0.0 0.00 0.00 0.00 50 1008.4
20210805110011 66 12 0.0 0.0 0.00 0.00 0.00 52 1008.5
20210805104507 66 12 0.0 0.0 0.00 0.00 0.00 53 1008.5
20210805103006 65 12 0.0 0.0 0.00 0.00 0.00 55 1008.4
20210805101513 65 12 0.0 0.0 0.00 0.00 0.00 56 1008.4
20210805100003 65 12 0.0 0.0 0.00 0.00 0.00 58 1008.5
20210805094502 64 12 0.0 0.0 0.00 0.00 0.00 61 1008.5
20210805093113 64 12 0.0 0.0 0.00 0.00 0.00 62 1008.5
20210805091651 65 12 0.0 0.0 0.00 0.00 0.00 62 1008.6
20210805090152 64 12 0.0 0.0 0.00 0.00 0.00 61 1008.7
20210805084719 65 12 0.0 0.0 0.00 0.00 0.00 61 1008.7
20210805083222 65 12 0.0 0.0 0.00 0.00 0.00 59 1008.5
20210805081627 66 12 0.0 0.0 0.00 0.00 0.00 58 1008.5
20210805080127 67 12 0.0 0.0 0.00 0.00 0.00 58 1008.5
20210805074611 68 12 0.0 0.0 0.00 0.00 0.00 57 1008.5
20210805073141 68 12 0.0 0.0 0.00 0.00 0.00 49 1008.5
20210805071607 69 12 0.0 0.0 0.00 0.00 0.00 49 1008.6
20210805070118 70 12 0.0 0.0 0.00 0.00 0.00 49 1008.6
20210805064602 69 12 0.0 0.0 0.00 0.00 0.00 49 1008.7
20210805063152 68 12 0.0 0.0 0.00 0.00 0.00 52 1008.7
20210805061607 68 12 0.0 0.0 0.00 0.00 0.00 58 1008.8
20210805060102 69 12 0.0 0.0 0.00 0.00 0.00 58 1008.8
20210805054637 69 12 0.0 0.0 0.00 0.00 0.00 60 1008.9
20210805053128 69 12 0.0 0.0 0.00 0.00 0.00 60 1008.9
20210805051549 69 12 0.0 0.0 0.00 0.00 0.00 60 1009.0
20210805050224 70 12 0.0 0.0 0.00 0.00 0.00 59 1009.2
20210805044620 70 12 0.0 0.0 0.00 0.00 0.00 56 1009.1
20210805043218 71 12 0.0 0.0 0.00 0.00 0.00 57 1009.2
20210805041542 72 12 0.0 0.0 0.00 0.00 0.00 57 1009.1
20210805040125 73 12 0.0 0.0 0.00 0.00 0.00 52 1009.1
20210805034621 74 12 0.0 0.0 0.00 0.00 0.00 50 1008.8
20210805033055 75 12 0.0 0.0 0.00 0.00 0.00 47 1008.8
20210805031628 76 12 0.0 0.0 0.00 0.00 0.00 47 1008.7
20210805030050 78 12 0.0 0.0 0.00 0.00 0.00 42 1008.6
20210805024558 81 12 0.0 0.0 0.00 0.00 0.00 37 1008.5
20210805023048 84 12 0.0 0.0 0.00 0.00 0.00 34 1008.5
20210805021607 86 12 0.0 0.0 0.00 0.00 0.00 33 1008.5
20210805020120 86 12 0.0 0.0 0.00 0.00 0.00 30 1008.6
20210805014531 87 12 0.0 0.0 0.00 0.00 0.00 29 1008.7
20210805013030 88 12 0.0 0.0 0.00 0.00 0.00 29 1008.8
20210805011537 88 12 0.0 0.0 0.00 0.00 0.00 28 1008.7
20210805010042 89 12 0.0 0.0 0.00 0.00 0.00 28 1008.8
20210805004526 90 12 0.0 0.0 0.00 0.00 0.00 28 1008.8
20210805003028 91 12 0.0 0.0 0.00 0.00 0.00 26 1008.9
20210805001537 91 14 0.0 0.0 0.00 0.00 0.00 29 1009.1
20210805000019 91 14 0.0 0.0 0.00 0.00 0.00 25 1009.2
20210804234517 91 346 0.0 0.0 0.00 0.00 0.00 27 1009.4
20210804233020 91 17 0.0 0.0 0.00 0.00 0.00 23 1009.5
20210804231600 90 242 1.0 0.0 0.00 0.00 0.00 26 1009.6
20210804230015 91 236 0.0 0.0 0.00 0.00 0.00 24 1009.8
20210804224511 90 238 0.0 0.0 0.00 0.00 0.00 23 1009.9
20210804223009 91 237 0.0 0.0 0.00 0.00 0.00 25 1010.1
20210804221535 90 223 2.0 0.0 0.00 0.00 0.00 27 1010.3
20210804220005 90 271 1.0 0.0 0.00 0.00 0.00 28 1010.5
20210804214506 90 290 1.0 0.0 0.00 0.00 0.00 27 1010.7
20210804213012 91 174 1.0 0.0 0.00 0.00 0.00 30 1010.9
20210804211653 90 298 2.0 0.0 0.00 0.00 0.00 29 1011.1
20210804210111 91 257 0.0 0.0 0.00 0.00 0.00 31 1011.5
20210804204727 89 204 2.0 0.0 0.00 0.00 0.00 24 1011.5
20210804203130 89 255 1.0 0.0 0.00 0.00 0.00 26 1011.8
20210804201737 89 300 1.0 0.0 0.00 0.00 0.00 30 1011.8
20210804200137 88 194 2.0 0.0 0.00 0.00 0.00 27 1012.0
20210804194818 88 272 0.0 0.0 0.00 0.00 0.00 31 1012.2
20210804193211 88 224 2.0 0.0 0.00 0.00 0.00 29 1012.3
20210804191636 88 262 0.0 0.0 0.00 0.00 0.00 29 1012.4
20210804190218 87 103 0.0 0.0 0.00 0.00 0.00 27 1012.6
20210804184645 87 109 0.0 0.0 0.00 0.00 0.00 28 1012.7
20210804183149 86 143 0.0 0.0 0.00 0.00 0.00 30 1012.9
20210804181620 85 101 0.0 0.0 0.00 0.00 0.00 31 1013.2
20210804180115 84 60 2.0 0.0 0.00 0.00 0.00 33 1013.3
20210804174642 84 91 0.0 0.0 0.00 0.00 0.00 33 1013.4
20210804173101 83 219 1.0 0.0 0.00 0.00 0.00 36 1013.5
20210804171557 82 34 1.0 0.0 0.00 0.00 0.00 37 1013.6
20210804170038 80 28 0.0 0.0 0.00 0.00 0.00 41 1013.7
20210804164534 79 19 1.0 0.0 0.00 0.00 0.00 42 1013.7
20210804163025 79 40 2.0 0.0 0.00 0.00 0.00 39 1013.8
20210804161523 78 5 1.0 0.0 0.00 0.00 0.00 43 1013.8
20210804160046 77 38 2.0 0.0 0.00 0.00 0.00 42 1013.8
20210804154537 76 39 1.0 0.0 0.00 0.00 0.00 45 1013.9
20210804153010 74 33 0.0 0.0 0.00 0.00 0.00 48 1013.9
20210804151647 72 33 0.0 0.0 0.00 0.00 0.00 52 1013.8
20210804150246 71 33 2.0 0.0 0.00 0.00 0.00 54 1013.8
20210804144653 70 33 3.0 0.0 0.00 0.00 0.00 54 1013.7
20210804143102 69 32 4.0 0.0 0.00 0.00 0.00 54 1013.6
20210804141647 68 34 1.0 0.0 0.00 0.00 0.00 58 1013.6
20210804140120 66 107 0.0 0.0 0.00 0.00 0.00 64 1013.5
20210804134600 65 107 0.0 0.0 0.00 0.00 0.00 65 1013.4
20210804133058 64 107 0.0 0.0 0.00 0.00 0.00 67 1013.3
20210804131707 63 188 0.0 0.0 0.00 0.00 0.00 65 1013.0